Powrót do katalogu

STARLINK-30985

AktywnyŁącznośćVLEO
NORAD 58493·PAYLOAD·🇺🇸 United States

Wystrzelony Dec 3, 2023 z Cape Canaveral Space Force Station

Loading…

Następne Przeloty (najbliższe 24 godziny)

TLE

ŚwieżeSource: CelesTrak SupGP

Epoka: Sep 15, 2026, 01:58 UTC

1 58493C 23186W   26258.08243056 -.00024936  00000+0 -90291-3 0  2587
2 58493  43.0037  73.8298 0001882 270.1353 103.0379 15.27600535    13

Śledź STARLINK-30985 w czasie rzeczywistym z AllMySat

Download on the App Store